Terug naar catalogus

STARLINK-11377

ActiefCommunicatieVLEO
NORAD 62013·PAYLOAD·🇺🇸 United States

Gelanceerd Nov 18, 2024 vanaf Vandenberg Space Force Base

Loading…

Volgende Passages (komende 24 uur)

TLE

VersSource: CelesTrak SupGP

Epoch: Sep 15, 2026, 02:21 UTC

1 62013C 24213F   26258.09840278 -.00072373  00000+0 -59601-3 0  2580
2 62013  53.1572 187.4353 0001240  87.3118 341.2674 15.69751380    16

Volg STARLINK-11377 in realtime met AllMySat

Download on the App Store